Find STARLINK-37047

NORAD ID: 70590 Constellation: starlink operational
LEOCIRCULAR

Live Position

Loading 3D Globe...

About STARLINK-37047

Description loading...

Upcoming Passes

Passes for default location (London). Set your location on the main map for personalized predictions.

Altitude History

Loading altitude history...

Two-Line Element Set

1 70590C 26099G 26122.85395833 -.00393370 00000+0 -48269-3 0 1220
2 70590 53.1634 22.7480 0005182 287.5297 334.8412 16.07395191 12
Epoch: May 2, 2026 • Age: 30 hours